Flag for Germany Weather past 2 weeks in Gummersbach, North Rhine-Westphalia, Germany

Now
54 °F

Sprinkles. Scattered clouds.


Feels Like: 51 °F
Forecast: 49 / 62 °F
Wind: 8 mph from Southwest

Location: Koeln / Bonn

Current Time: Jul 29, 2015 at 7:51:51 AM

Latest Report: Jul 29, 2015 at 7:20 AM


Visibility: N/A

Pressure: 29.80 "Hg

Humidity: 77%

Dew point: 46 °F

Location of GummersbachLocation

Historic Weather in Gummersbach — Graph

°F

Gummersbach temperature yesterday

Maximum temperature yesterday: 66 °F (at 12:20 PM)
Minimum temperature yesterday: 52 °F (at 5:50 AM)
Average temperature yesterday: 60 °F

Past Weeks' High & Low Weather Summary

 TemperatureHumidityPressure
High95 °F (Jul 17, 3:20 PM)94% (Jul 15, 1:20 AM)30.12 "Hg (Jul 15, 1:20 AM)
Low48 °F (Jul 26, 3:50 AM)15% (Jul 17, 4:20 PM)29.56 "Hg (Jul 25, 6:50 AM)
Average68 °F69%29.91 "Hg
* Reported Jul 14 6:20 AM — Jul 29 6:20 AM, Gummersbach, Weather by CustomWeather, © 2015

Note: Actual official high and low records may vary slightly from our data, if they occured in-between our weather recording intervals... More about our weather records

Advertising

Gummersbach weather history for previous 24 hours

 ConditionsComfort  
Time TempWeatherWind HumidityBarometerVisibility
6:20 AM
Wed, Jul 29
52 °FSprinkles. Partly cloudy.6 mph82%29.80 "HgN/A
5:50 AM50 °FPassing clouds.6 mph82%29.80 "HgN/A
5:20 AM52 °FClear.6 mph77%29.80 "Hg10 mi
4:50 AM52 °FClear.7 mph82%29.80 "Hg10 mi
4:20 AM52 °FClear.7 mph82%29.80 "Hg10 mi
3:50 AM52 °FPassing clouds.6 mph82%29.80 "HgN/A
3:20 AM52 °FClear.7 mph82%29.80 "Hg10 mi
2:50 AM54 °FClear.7 mph77%29.80 "Hg10 mi
2:20 AM54 °FPassing clouds.6 mph77%29.80 "HgN/A
1:50 AM52 °FPassing clouds.6 mph77%29.80 "HgN/A
1:20 AM54 °FPassing clouds.7 mph77%29.80 "HgN/A
12:50 AM55 °FClear.7 mph72%29.80 "Hg10 mi
11:50 PM
Tue, Jul 28
55 °FClear.9 mph72%29.80 "Hg10 mi
11:20 PM57 °FClear.10 mph67%29.80 "Hg10 mi
10:50 PM57 °FPassing clouds.10 mph67%29.80 "HgN/A
10:20 PM59 °FPassing clouds.10 mph63%29.80 "HgN/A
9:50 PM59 °FPassing clouds.13 mph63%29.80 "HgN/A
9:20 PM61 °FScattered clouds.14 mph59%29.80 "HgN/A
8:50 PM63 °FBroken clouds.15 mph56%29.77 "HgN/A
8:20 PM63 °FBroken clouds.8 mph52%29.77 "HgN/A
7:50 PM63 °FBroken clouds.16 mph52%29.77 "HgN/A
7:20 PM64 °FBroken clouds.17 mph49%29.77 "HgN/A
6:50 PM64 °FBroken clouds.17 mph49%29.77 "HgN/A
6:20 PM64 °FPartly sunny.20 mph49%29.77 "HgN/A
5:50 PM64 °FBroken clouds.18 mph46%29.74 "HgN/A
5:20 PM64 °FPartly sunny.10 mph56%29.74 "HgN/A
4:50 PM63 °FBroken clouds.6 mph64%29.74 "HgN/A
4:20 PM63 °FPartly sunny.8 mph64%29.77 "HgN/A
3:50 PM63 °FPartly sunny.14 mph64%29.77 "HgN/A
3:20 PM63 °FBroken clouds.10 mph59%29.77 "HgN/A
2:50 PM64 °FBroken clouds.16 mph52%29.74 "HgN/A
2:20 PM66 °FScattered showers. Broken clouds.15 mph49%29.74 "HgN/A
1:50 PM64 °FScattered showers. Broken clouds.15 mph49%29.74 "HgN/A
1:20 PM66 °FBroken clouds.18 mph49%29.74 "HgN/A
12:50 PM64 °FBroken clouds.18 mph52%29.74 "HgN/A
12:20 PM66 °FBroken clouds.18 mph49%29.74 "HgN/A
11:20 AM63 °FBroken clouds.22 mph59%29.74 "HgN/A
10:50 AM63 °FBroken clouds.18 mph64%29.74 "HgN/A
10:20 AM61 °FBroken clouds.24 mph63%29.74 "HgN/A
9:50 AM61 °FBroken clouds.17 mph68%29.74 "HgN/A
9:20 AM61 °FBroken clouds.10 mph68%29.74 "HgN/A
8:50 AM61 °FScattered clouds.17 mph68%29.71 "HgN/A
8:20 AM59 °FScattered clouds.10 mph72%29.71 "HgN/A
7:50 AM57 °FScattered clouds.8 mph72%29.71 "HgN/A
7:20 AM55 °FSunny.8 mph77%29.71 "Hg10 mi
Weather by CustomWeather, © 2015

See weather overviewHow to use our weather pages